W5CGC Weather Reports


time (UTC)temp
C
wind
direction
speed
KPH
gust
KPH
rain 1hr
cm
rain 24hr
cm
rain mn
cm
humidity
%
barometer
mb
20260509070034 20 0 0.0 4.8 0.00 1.75 0.00 83 1009.9
20260509064533 20 0 0.0 1.6 0.00 1.75 0.00 83 1010.3
20260509063036 20 0 0.0 1.6 0.00 1.75 0.00 82 1010.4
20260509061550 20 0 0.0 0.0 0.00 1.75 0.00 81 1010.4
20260509060036 20 0 0.0 0.0 0.00 1.75 0.00 80 1010.3
20260509054541 20 0 0.0 1.6 0.00 1.75 0.00 80 1010.2
20260509053051 20 0 0.0 0.0 0.00 1.75 0.00 79 1011.0
20260509051534 21 0 0.0 0.0 0.00 1.75 0.00 79 1011.2
20260509050033 21 0 0.0 1.6 0.00 1.75 0.00 79 1011.6
20260509044538 21 0 0.0 0.0 0.00 1.75 1.75 78 1010.0
20260509043034 21 0 0.0 0.0 0.00 1.75 1.75 77 1010.1
20260509041538 21 0 0.0 3.2 0.00 1.75 1.75 77 1009.6
20260509040039 21 0 0.0 3.2 0.00 1.75 1.75 76 1009.7
20260509034538 22 0 0.0 1.6 0.00 1.75 1.75 76 1009.5
20260509033038 22 172 0.0 0.0 0.00 1.75 1.75 77 1010.1
20260509031537 21 0 0.0 1.6 0.00 1.75 1.75 76 1010.1
20260509030035 21 0 0.0 1.6 0.00 1.75 1.75 76 1009.3
20260509024538 22 0 0.0 0.0 0.00 1.75 1.75 75 1009.0
20260509023039 22 0 0.0 3.2 0.00 1.75 1.75 75 1008.5
20260509021538 22 0 0.0 3.2 0.00 1.75 1.75 75 1008.1
20260509020039 22 0 0.0 1.6 0.00 1.75 1.75 74 1007.9
20260509014535 22 0 0.0 4.8 0.00 1.75 1.75 74 1007.7
20260509013034 22 0 0.0 4.8 0.00 1.75 1.75 73 1008.4
20260509011538 22 0 0.0 1.6 0.00 1.75 1.75 73 1008.6
20260509010038 22 0 0.0 0.0 0.00 1.75 1.75 72 1008.2
20260509004540 22 0 0.0 6.4 0.00 1.75 1.75 71 1008.0
20260509003037 22 37 0.0 6.4 0.00 1.75 1.75 70 1007.7
20260509001532 23 0 0.0 6.4 0.00 1.75 1.75 69 1007.6
20260509000034 23 0 1.6 8.0 0.00 1.75 1.75 69 1007.6
20260508234539 23 65 1.6 9.7 0.00 1.75 1.75 69 1007.9
20260508233037 23 89 1.6 9.7 0.00 1.75 1.75 68 1008.0
20260508231540 23 36 3.2 12.9 0.00 1.75 1.75 67 1008.1
20260508230051 24 96 3.2 11.3 0.00 1.75 1.75 66 1008.1
20260508224537 25 121 1.6 11.3 0.00 1.75 1.75 64 1008.1
20260508223043 25 321 1.6 9.7 0.00 1.75 1.75 63 1008.2
20260508221538 25 72 3.2 19.3 0.00 1.75 1.75 62 1008.3
20260508220039 25 82 1.6 11.3 0.00 1.75 1.75 63 1008.3
20260508214545 24 11 1.6 12.9 0.00 1.75 1.75 64 1008.3
20260508213047 24 91 1.6 9.7 0.00 1.75 1.75 62 1008.5
20260508211541 23 0 1.6 8.0 0.00 1.75 1.75 64 1008.7
20260508210035 24 110 3.2 14.5 0.00 1.75 1.75 63 1008.7
20260508204538 23 190 1.6 8.0 0.00 1.75 1.75 63 1008.6
20260508203037 22 98 1.6 11.3 0.00 1.75 1.75 66 1009.6
20260508201536 22 113 1.6 6.4 0.00 1.75 1.75 65 1010.7
20260508200032 23 41 1.6 8.0 0.00 1.75 1.75 63 1010.7
20260508194532 23 76 1.6 6.4 0.00 1.75 1.75 64 1010.6
20260508193044 23 0 1.6 9.7 0.00 1.75 1.75 64 1010.6
20260508191540 23 39 0.0 11.3 0.00 1.75 1.75 63 1010.7
20260508190036 24 37 1.6 6.4 0.00 1.75 1.75 62 1010.8
20260508184532 24 44 1.6 11.3 0.00 1.75 1.75 61 1010.8
20260508183038 25 85 1.6 12.9 0.00 1.75 1.75 60 1011.0
20260508181540 25 80 0.0 9.7 0.00 1.75 1.75 61 1011.1
20260508180038 25 85 1.6 8.0 0.00 1.75 1.75 62 1011.7
20260508174539 25 113 1.6 9.7 0.00 1.75 1.75 62 1011.8
20260508173035 24 97 0.0 12.9 0.00 1.75 1.75 63 1011.9
20260508171536 23 136 0.0 6.4 0.00 1.75 1.75 66 1012.1
20260508170033 22 184 0.0 8.0 0.00 1.75 1.75 71 1012.2
20260508164533 21 162 1.6 11.3 0.00 1.75 1.75 74 1012.5
20260508163036 20 155 0.0 4.8 0.00 1.75 1.75 82 1013.0
20260508161535 18 70 1.6 9.7 0.00 1.75 1.75 87 1013.3
20260508160036 18 0 0.0 4.8 0.00 1.75 1.75 88 1013.4
20260508154538 17 0 0.0 3.2 0.00 1.75 1.75 88 1013.5
20260508153036 17 0 0.0 1.6 0.00 1.75 1.75 88 1013.6
20260508151533 17 0 0.0 1.6 0.00 1.75 1.75 88 1013.7
20260508150032 17 0 0.0 0.0 0.00 1.75 1.75 89 1014.1
20260508144537 16 0 0.0 1.6 0.00 1.75 1.75 88 1014.0
20260508143034 16 0 0.0 0.0 0.00 1.75 1.75 88 1014.1
20260508141533 16 0 0.0 1.6 0.00 1.75 1.75 88 1014.2
20260508140032 16 0 0.0 3.2 0.00 1.75 1.75 88 1014.2
20260508134535 16 0 0.0 3.2 0.00 1.75 1.75 88 1014.0
20260508133039 16 0 0.0 4.8 0.00 1.75 1.75 88 1013.9
20260508131539 15 0 0.0 3.2 0.10 1.75 1.75 88 1013.9
20260508130036 15 0 0.0 1.6 0.43 1.75 1.75 88 1014.0
20260508124538 15 0 0.0 0.0 0.51 1.75 1.75 88 1014.3
20260508123038 15 0 0.0 1.6 0.51 1.75 1.75 88 1014.0
20260508121542 15 0 0.0 3.2 0.41 1.65 1.65 88 1014.3
20260508120042 15 0 0.0 1.6 0.05 1.30 1.30 88 1014.5
20260508114541 15 0 0.0 3.2 0.00 1.24 1.24 88 1014.0
20260508113041 15 0 0.0 0.0 0.08 1.24 1.24 88 1014.4
20260508111542 15 0 0.0 1.6 0.25 1.24 1.24 88 1014.1
20260508110033 15 0 0.0 0.0 0.25 1.24 1.24 88 1014.0
20260508104538 15 0 0.0 0.0 0.28 1.24 1.24 88 1013.7
20260508103035 15 0 0.0 1.6 0.43 1.17 1.17 88 1013.9
20260508101536 15 0 0.0 1.6 0.25 0.99 0.99 88 1014.6
20260508100032 15 0 0.0 1.6 0.25 0.99 0.99 87 1013.7
20260508094531 15 0 0.0 1.6 0.23 0.97 0.97 87 1013.6
20260508093033 15 127 0.0 1.6 0.00 0.74 0.74 87 1013.5
20260508091544 15 0 0.0 0.0 0.00 0.74 0.74 87 1013.4
20260508090035 15 0 0.0 0.0 0.00 0.74 0.74 87 1013.8
20260508084532 15 0 0.0 0.0 0.00 0.74 0.74 86 1013.7
20260508083037 15 0 0.0 0.0 0.00 0.74 0.74 86 1014.1
20260508081544 15 0 0.0 0.0 0.53 0.74 0.74 83 1014.5
20260508080034 15 0 0.0 1.6 0.74 0.74 0.74 76 1013.9
20260508074534 15 0 0.0 0.0 0.74 0.74 0.74 72 1014.2
20260508073034 16 0 0.0 0.0 0.74 0.74 0.74 68 1015.4
20260508071536 16 0 0.0 0.0 0.15 0.15 0.15 63 1015.8